GFSCGP_sfc_rhum_117.txt.gz
RH
69 66 76 70 67 56 55 62 62 68 60 66 66 66 59 52 55 60 64 83 91 89 88 85 82 85 88 89 90 88 86 89 85 81 86 83 85 82 90 92 87 89 93 92
70 76 60 60 55 54 58 66 79 74 63 71 73 72 63 63 65 64 71 89 89 89 86 84 87 90 92 91 94 91 86 87 86 84 86 87 89 91 93 92 88 90 91 92
73 64 58 60 66 66 74 75 81 73 72 74 74 55 69 70 75 77 78 85 88 88 87 88 86 92 94 94 96 92 90 88 85 89 92 93 86 88 91 91 92 89 86 87
70 60 65 72 73 70 77 68 71 76 78 68 73 66 61 72 79 78 92 94 92 89 88 88 91 92 94 94 94 92 86 84 71 84 95 94 94 94 92 92 89 86 80 82
73 70 74 76 74 69 74 69 75 78 86 87 79 91 70 80 76 77 89 94 93 91 90 90 91 91 92 93 94 93 84 76 72 75 83 92 88 89 88 86 83 82 77 70
71 62 72 73 67 67 65 76 76 88 86 85 79 89 78 77 70 74 89 93 93 93 91 90 91 90 91 90 91 89 78 70 69 71 72 76 80 79 79 76 76 74 71 71
78 79 71 67 78 70 73 84 89 71 91 77 82 92 78 59 65 72 80 93 92 92 93 92 93 93 91 91 90 85 82 67 64 63 66 67 72 73 75 78 78 71 69 66
90 79 78 69 77 79 89 80 84 53 97 94 82 94 70 69 86 88 86 87 89 90 92 92 92 91 92 89 90 87 85 77 67 59 62 65 64 74 74 70 74 72 69 68
95 91 75 71 66 67 83 93 80 91 93 96 92 76 65 88 87 91 90 91 90 91 93 93 91 91 91 88 89 86 85 60 59 56 58 58 61 59 61 57 59 61 60 45
78 95 77 72 64 72 78 76 88 91 93 95 89 85 82 81 81 84 92 93 90 90 92 92 93 92 92 90 88 84 80 60 54 56 52 50 52 50 51 53 53 52 52 53
79 80 73 67 87 86 88 90 86 84 88 94 92 67 67 70 73 68 80 88 89 90 91 91 92 92 91 90 89 86 72 65 54 53 52 51 51 51 53 55 56 56 52 52
82 86 97 85 79 73 82 84 83 89 82 90 89 78 63 78 72 79 76 80 87 88 88 90 91 91 92 91 89 88 69 70 61 54 52 51 52 53 56 58 58 55 53 53
76 83 92 78 75 80 84 81 78 76 84 88 93 63 69 85 84 83 84 83 87 87 88 89 90 92 92 92 91 84 68 60 59 53 51 54 55 56 58 60 58 53 56 57
68 85 75 69 59 78 86 81 80 76 94 88 86 77 58 59 81 81 83 88 86 89 88 90 91 91 92 92 92 88 72 55 52 51 52 54 56 57 59 57 54 54 57 57
76 82 90 84 80 78 78 75 81 85 74 80 72 72 47 47 46 47 64 82 86 88 90 88 87 88 92 92 92 85 67 54 52 50 52 52 54 57 56 53 56 57 59 59
83 79 86 89 75 84 83 79 76 74 76 75 71 71 45 40 51 60 65 77 82 80 79 78 82 86 90 88 87 82 63 52 52 51 52 52 56 58 56 57 60 61 63 63
86 87 86 83 72 75 60 65 60 69 72 61 74 53 46 50 52 52 52 59 66 66 70 76 77 77 78 82 80 80 66 54 53 54 52 54 58 57 58 60 62 62 63 67
84 80 90 93 75 45 30 45 52 58 53 55 50 42 42 50 51 50 51 54 57 64 68 72 73 75 76 75 85 76 66 56 56 58 58 60 61 59 60 63 64 64 66 66
77 82 88 92 93 54 28 60 57 51 34 49 48 44 43 52 58 49 50 54 54 61 66 71 74 77 79 84 79 73 67 62 62 62 61 63 62 60 60 62 65 67 69 72
82 82 81 90 87 45 25 47 51 44 27 24 48 48 52 67 53 46 50 57 58 69 77 78 81 84 82 80 76 70 68 64 63 65 67 64 64 62 63 64 67 69 72 66
91 93 95 94 95 82 58 45 52 45 17 35 52 44 52 56 48 46 62 65 71 70 67 72 82 78 76 78 70 68 69 63 64 67 65 64 62 62 63 67 69 71 74 71
86 95 98 94 98 75 57 56 34 28 44 53 47 40 45 54 54 54 60 66 66 67 69 75 78 78 75 72 68 73 68 68 65 65 61 58 55 52 51 66 71 72 73 74
59 59 73 78 70 51 59 50 46 49 44 45 42 42 44 51 53 54 61 66 70 73 75 75 76 74 71 68 64 69 65 62 60 55 51 49 52 54 56 67 71 72 73 72
53 58 59 51 41 54 46 47 49 49 43 39 50 50 52 51 53 56 62 67 75 80 81 79 75 73 70 68 64 63 59 55 51 50 50 53 57 59 67 62 64 71 73 76
50 54 52 57 42 35 34 40 39 39 44 45 45 52 51 58 59 61 62 62 69 79 85 84 78 74 69 67 64 58 54 48 48 48 51 55 58 63 68 67 70 62 73 78
64 53 53 52 46 46 45 42 50 50 49 45 47 49 51 57 58 62 64 66 70 73 84 88 83 78 74 70 64 54 51 48 49 50 54 59 61 70 68 71 69 62 62 63

GFSCGP_sfc_rhum_120.txt.gz
RH
64 68 73 70 71 49 60 59 60 75 62 73 66 67 59 54 58 58 56 69 94 93 91 88 84 86 89 89 92 93 90 91 89 92 94 90 87 88 91 91 85 86 86 87
69 77 65 61 57 58 58 63 80 76 66 76 75 74 62 64 65 63 60 68 90 92 93 85 88 90 92 92 94 93 88 89 87 91 86 90 93 91 92 89 87 82 80 84
71 69 61 59 69 65 80 71 79 71 72 76 75 52 53 74 76 79 77 80 90 92 92 88 85 91 92 93 95 91 88 85 84 87 96 96 93 94 88 88 85 77 72 78
73 63 67 72 74 69 70 74 76 75 73 64 75 64 47 70 72 81 87 90 92 91 89 88 88 91 92 94 93 90 83 79 71 81 92 93 93 97 95 93 86 78 67 69
78 78 77 76 78 70 77 72 78 80 86 85 80 86 58 80 71 72 85 92 92 92 91 91 90 88 92 92 92 90 78 73 75 76 82 88 85 89 87 86 81 81 78 69
73 65 76 75 73 69 69 77 71 84 84 81 79 88 68 69 68 74 82 88 92 93 93 91 89 91 92 91 89 86 73 68 68 71 73 78 80 80 80 79 81 79 74 73
77 80 73 70 75 73 72 83 82 67 86 75 81 94 73 59 65 74 74 82 92 93 94 93 92 92 92 91 89 85 81 66 65 62 66 68 72 72 74 78 78 74 77 76
83 72 80 74 80 78 87 77 79 41 83 91 86 96 71 70 85 85 86 86 91 93 94 93 91 92 93 92 91 88 86 72 62 58 62 64 62 71 71 70 73 73 71 70
94 96 78 75 72 68 88 90 79 91 96 93 91 75 63 72 81 88 88 90 90 91 91 93 92 92 92 93 91 89 86 65 60 56 59 58 60 58 60 58 60 62 62 46
79 96 81 76 72 77 79 75 87 93 84 88 86 83 79 77 80 82 87 91 90 89 91 93 92 92 92 91 91 90 85 75 55 59 54 51 54 53 54 55 55 54 54 56
80 82 83 76 87 86 91 90 88 86 87 91 89 58 67 70 73 64 70 81 86 88 90 91 92 91 91 92 93 91 83 76 60 55 55 54 53 53 55 57 59 57 53 54
83 85 97 85 81 81 82 83 83 87 80 92 91 76 62 76 75 74 71 74 82 87 89 90 91 91 93 94 93 92 88 72 71 57 56 54 54 56 58 59 61 56 54 56
75 84 92 78 78 84 88 85 80 79 85 90 91 51 59 76 81 82 83 82 81 85 88 90 91 93 93 94 93 92 89 74 65 64 58 56 57 59 60 61 58 53 56 59
63 84 72 65 56 82 91 86 84 79 95 87 88 77 57 51 54 63 78 83 84 84 86 89 92 91 91 90 90 91 90 80 65 62 58 57 59 60 61 61 55 55 59 60
71 73 92 85 80 79 78 78 88 87 77 83 75 81 57 52 49 46 47 58 78 82 87 86 84 85 87 88 89 90 90 86 66 57 57 56 57 60 62 57 56 58 61 60
85 76 87 89 77 84 89 82 81 84 81 81 76 77 51 48 58 61 57 59 67 72 76 76 79 80 84 83 81 85 87 84 63 55 54 56 58 61 62 59 59 61 62 63
84 86 86 81 75 77 62 72 77 80 81 70 77 54 51 49 52 55 53 52 54 57 60 72 76 75 74 76 75 84 83 81 62 55 55 56 60 64 63 60 62 63 64 66
87 82 90 94 75 39 29 50 58 64 59 63 58 48 43 50 52 52 51 51 50 52 54 60 68 76 75 73 84 80 88 74 64 57 58 59 65 64 62 62 62 64 66 65
78 83 89 91 92 48 34 62 60 53 33 55 57 52 54 53 58 44 49 56 52 54 55 61 68 75 80 86 83 90 87 77 67 61 59 62 66 66 64 62 61 63 66 70
85 84 82 92 82 40 21 56 62 62 23 26 52 45 48 55 42 38 39 60 58 60 67 71 78 84 88 88 90 90 86 76 70 62 62 64 66 63 62 58 61 65 68 63
93 93 95 93 94 79 58 55 62 39 22 34 61 42 48 55 43 37 53 58 65 69 67 71 79 87 86 85 88 87 86 77 69 72 70 70 68 64 60 62 65 67 70 70
89 96 97 90 98 66 59 62 46 28 46 47 46 44 44 47 50 52 52 58 62 68 71 73 77 78 83 82 84 87 84 77 72 72 70 67 62 52 53 62 66 68 72 74
64 64 76 80 69 53 66 52 48 52 52 53 55 46 52 54 51 54 58 61 65 71 76 81 80 80 80 78 81 83 79 70 70 67 65 60 53 53 54 61 63 66 69 74
55 62 61 53 51 57 47 50 54 51 46 46 47 50 53 53 54 57 60 65 68 68 74 81 83 80 78 76 74 75 72 67 64 61 57 54 54 58 60 60 62 66 71 72
51 59 55 58 44 47 41 49 46 45 54 59 56 56 53 54 56 61 63 63 64 68 72 80 85 85 80 74 72 68 66 61 59 56 53 56 57 63 64 65 66 62 67 70
67 54 56 56 50 57 60 61 62 68 63 61 65 63 56 56 58 62 64 66 71 72 74 81 86 90 85 76 72 67 60 57 55 52 53 58 60 65 64 68 65 62 63 62

GFSCGP_sfc_rhum_123.txt.gz
RH
60 64 71 61 55 43 55 47 55 62 57 61 57 60 49 44 48 48 42 43 62 83 77 76 72 73 75 73 75 73 71 68 68 76 79 76 82 81 82 84 73 73 73 77
67 76 64 58 57 54 54 56 72 67 62 63 69 63 52 53 54 50 46 45 50 82 84 78 74 74 76 78 78 74 68 66 66 73 78 81 85 83 85 78 68 65 64 70
71 65 60 60 67 65 76 60 63 63 64 62 67 45 38 55 63 64 64 60 60 74 84 80 76 74 80 80 81 74 69 64 65 71 80 83 81 78 75 71 68 61 56 63
72 64 64 68 74 61 69 70 71 70 58 57 61 59 41 47 58 67 68 76 76 83 81 78 77 77 80 82 82 75 65 62 57 67 72 79 80 76 78 76 69 62 56 57
78 74 71 76 75 66 76 71 74 72 75 70 59 75 44 61 54 54 66 75 79 82 81 80 80 78 79 81 81 75 62 58 60 62 67 71 67 71 68 67 62 60 58 55
74 67 73 72 74 71 72 66 66 72 72 73 70 68 49 50 50 55 62 73 80 83 82 80 78 79 82 83 78 73 59 56 56 56 60 63 65 64 64 62 61 59 56 58
74 76 72 68 73 69 69 71 82 73 83 72 74 84 54 47 51 57 59 64 78 82 84 84 85 84 84 86 80 74 69 56 53 50 53 55 57 59 58 61 61 56 55 52
83 73 72 70 72 72 80 68 78 57 63 78 81 88 56 57 75 70 74 75 76 84 85 86 84 83 84 85 84 77 76 63 54 47 49 53 51 56 57 56 58 55 54 52
93 97 76 76 71 66 83 86 69 89 92 90 73 67 55 64 63 73 77 80 80 84 85 84 83 83 83 84 84 83 77 75 54 47 48 46 48 48 50 48 50 49 49 39
76 96 80 76 71 76 71 72 76 86 78 75 72 72 75 64 72 67 72 79 80 81 82 82 83 83 82 82 83 84 78 70 53 49 43 40 42 42 43 43 43 42 41 44
76 78 82 75 83 86 87 88 84 77 77 79 73 47 59 62 61 60 61 66 74 79 82 81 82 80 78 80 80 80 77 68 61 45 44 43 42 42 42 42 44 43 40 41
84 80 96 82 79 75 79 79 76 74 78 84 80 62 48 57 71 67 65 66 68 75 78 78 78 77 78 78 78 81 78 72 61 52 44 45 43 44 44 44 46 43 39 42
75 83 91 77 74 84 88 83 75 74 77 88 76 39 44 55 64 69 74 70 69 68 71 76 79 78 76 76 77 79 78 75 64 58 51 46 45 46 45 46 47 42 42 43
63 81 67 63 55 82 94 88 79 75 90 80 80 66 49 45 46 44 46 55 62 68 70 69 77 76 75 76 77 77 78 75 69 59 56 50 46 47 47 49 48 44 44 45
66 70 90 80 73 74 76 81 88 84 75 76 69 76 52 53 50 47 48 51 51 51 61 68 70 69 73 77 78 79 78 77 73 64 58 52 49 50 51 53 48 46 48 46
84 74 84 88 74 80 82 80 82 84 79 80 72 74 49 47 51 54 51 50 48 50 49 59 68 69 72 73 72 74 77 78 77 68 61 54 51 51 55 53 50 49 50 50
83 83 84 72 76 71 55 66 77 80 80 72 80 57 51 50 50 48 46 46 49 45 46 48 56 64 65 66 68 71 72 72 79 73 63 53 50 53 56 53 51 50 49 48
86 81 87 94 64 40 26 53 61 66 64 71 66 56 52 52 50 51 46 50 49 50 49 49 51 58 66 66 72 70 74 81 78 73 67 57 54 54 57 56 53 50 48 50
79 83 90 90 87 47 37 52 55 55 34 52 60 54 52 50 54 44 32 47 48 50 50 53 59 64 70 74 77 83 87 85 80 75 67 60 55 57 60 58 55 51 52 55
83 82 79 93 82 32 20 40 52 50 24 33 55 42 42 48 49 39 34 42 44 49 58 62 64 71 76 77 81 88 88 88 82 75 70 61 59 58 60 59 57 55 55 53
94 94 95 94 93 73 51 49 52 32 26 35 44 44 48 52 45 40 42 47 54 56 58 64 70 71 72 79 84 89 89 87 78 76 70 64 61 60 59 59 57 62 62 60
92 96 96 89 96 63 58 57 44 31 48 47 51 51 51 50 50 50 48 51 55 59 64 66 72 72 74 76 80 83 85 80 74 71 68 65 61 54 54 56 62 60 62 61
62 64 72 76 67 51 60 51 52 52 52 53 54 51 59 57 56 52 54 54 55 63 66 68 74 76 73 73 74 74 74 72 70 68 65 61 56 49 50 51 53 54 59 59
58 64 63 55 57 52 45 50 53 51 50 50 59 65 61 61 58 56 54 59 62 62 62 68 74 72 70 72 69 70 70 68 66 64 60 55 51 50 50 49 49 54 59 59
49 62 59 59 47 53 49 58 65 64 66 67 66 68 69 69 62 58 58 60 61 66 68 71 75 76 73 77 72 67 67 64 62 58 54 50 49 53 52 54 56 55 54 54
64 53 52 55 50 61 61 62 65 65 60 59 72 75 74 73 68 66 66 68 71 70 76 74 76 83 81 85 80 70 64 61 59 54 52 51 51 56 58 58 58 63 62 61

GFSCGP_sfc_rhum_126.txt.gz
RH
41 36 41 29 32 28 29 29 38 42 47 42 32 33 25 22 28 22 17 20 28 42 47 56 54 54 56 55 56 53 52 49 50 56 59 60 75 74 65 63 57 56 56 59
46 54 46 40 34 28 25 29 44 48 49 41 39 32 22 21 25 24 21 19 22 30 49 59 59 55 56 59 59 55 51 48 51 56 60 66 73 71 68 59 54 51 48 54
42 49 46 38 39 34 38 26 38 53 47 43 40 21 25 26 30 32 31 30 29 32 36 52 60 56 58 60 60 56 51 47 50 56 60 67 69 61 56 52 47 44 41 46
50 49 44 42 52 37 40 50 45 44 34 39 41 40 22 21 26 40 39 43 41 44 41 49 58 58 60 60 62 56 50 48 42 51 54 61 60 58 53 49 44 43 40 42
67 52 49 54 64 50 56 50 48 45 41 44 37 59 18 29 21 24 30 40 44 50 52 55 59 57 58 62 64 57 47 44 43 46 50 49 49 48 45 44 44 44 41 41
60 54 56 59 56 50 51 46 49 46 46 60 50 43 23 25 28 35 39 38 48 53 55 56 55 58 58 62 64 59 47 44 42 41 43 46 48 46 43 42 40 38 35 36
52 60 56 51 53 51 49 49 94 88 96 61 58 54 23 28 32 37 41 41 47 53 56 58 62 62 61 65 66 60 52 47 40 38 38 40 41 42 41 40 38 38 36 34
80 78 57 56 53 48 56 50 79 90 47 53 60 58 31 39 50 40 46 49 53 54 58 60 62 63 64 63 66 60 56 50 40 33 34 38 39 38 38 39 39 36 34 33
67 95 61 59 53 53 59 64 49 69 62 57 40 38 34 39 42 38 48 55 52 56 58 60 61 62 62 61 63 64 57 54 45 35 32 30 31 35 36 37 37 34 35 28
54 83 62 62 56 56 53 50 60 65 69 46 44 45 57 58 54 42 43 45 46 52 56 58 59 59 59 58 58 62 60 50 44 34 28 27 27 29 31 32 32 32 30 31
48 50 70 61 61 53 60 61 58 50 56 51 33 25 32 40 44 43 38 40 42 46 50 53 54 53 53 53 52 54 56 54 47 38 28 28 28 30 29 29 30 31 29 26
55 51 70 59 60 56 56 53 43 43 57 52 48 29 29 36 44 46 40 41 41 44 44 45 47 46 47 49 48 50 52 54 52 42 33 28 28 30 30 30 30 30 30 27
52 54 73 66 60 62 65 57 52 48 49 55 40 19 26 33 39 36 34 28 28 31 35 36 40 43 45 46 48 47 50 53 53 50 40 33 31 32 31 30 31 32 31 29
54 56 52 39 47 54 66 66 57 49 62 44 38 28 25 26 28 31 30 28 26 27 29 31 34 35 40 44 46 46 47 49 52 54 48 40 34 32 30 30 33 33 31 30
48 52 64 50 52 55 57 62 66 64 48 44 32 42 30 32 32 31 29 26 26 24 26 28 32 31 33 40 45 48 48 49 53 56 53 47 39 34 33 33 36 35 34 32
60 58 59 69 55 54 55 46 51 60 54 52 48 47 32 31 27 26 23 22 26 25 26 29 30 32 36 38 44 47 50 51 52 58 56 51 46 41 39 37 37 38 37 35
56 59 61 47 51 49 45 41 44 45 51 45 45 32 33 29 28 28 25 26 26 26 29 31 30 30 32 34 39 45 46 47 52 58 56 53 50 47 42 38 39 40 39 36
58 56 65 68 49 39 22 36 39 43 40 44 41 37 32 32 30 28 25 26 27 25 28 28 28 33 36 39 45 47 50 50 51 56 60 56 56 51 44 41 41 40 37 37
53 50 58 58 44 31 29 40 42 37 24 33 39 33 28 28 29 25 24 24 27 29 29 31 32 36 40 41 44 52 56 59 60 63 62 60 57 55 50 48 44 41 41 40
60 52 47 56 52 16 16 28 35 34 22 27 35 31 32 35 38 26 27 30 31 32 30 34 36 40 42 38 48 59 64 64 66 66 65 62 59 56 52 48 46 44 42 41
67 65 64 58 57 37 29 36 35 25 22 30 31 34 37 40 34 36 37 38 36 35 37 39 41 44 43 46 53 59 61 65 62 65 66 65 58 57 51 48 46 50 47 45
58 65 66 64 68 52 40 43 33 32 37 39 37 37 40 43 47 46 44 44 40 40 42 40 44 47 48 51 54 56 56 54 58 64 66 64 58 52 47 50 54 46 44 43
45 44 44 47 39 39 41 37 38 39 42 43 44 39 45 53 54 52 52 47 43 43 45 44 47 50 46 45 50 54 48 52 54 56 58 56 53 50 45 43 44 40 38 39
43 47 44 46 41 43 33 38 39 42 46 44 43 48 53 59 58 57 52 49 48 47 50 50 52 50 48 46 54 55 52 53 54 55 54 52 50 45 41 41 37 38 40 40
36 46 43 41 36 37 38 39 48 50 47 45 46 50 56 59 59 56 54 52 51 51 52 54 55 56 57 57 59 57 55 52 54 53 50 48 46 47 40 40 37 36 32 33
42 37 34 31 37 43 43 43 50 46 44 45 49 52 50 55 56 54 53 50 50 52 53 55 59 62 62 64 66 64 56 52 52 51 50 47 45 44 42 40 39 52 51 55

GFSCGP_sfc_rhum_129.txt.gz
RH
35 36 40 25 25 22 23 28 30 34 38 31 25 21 15 17 20 19 13 13 17 29 33 40 44 46 49 47 49 45 46 45 46 51 54 55 69 68 67 60 53 51 50 54
41 42 34 27 24 24 23 24 33 37 36 32 26 27 18 15 17 18 16 13 13 19 29 42 50 49 49 50 52 50 46 46 46 52 56 59 67 71 61 54 49 45 44 48
43 40 37 26 26 22 22 24 34 52 35 31 28 21 17 14 13 15 16 16 15 18 22 33 48 51 51 54 54 50 48 45 46 52 56 62 68 62 55 51 46 42 39 43
41 38 32 32 40 31 35 30 29 33 32 36 26 38 18 14 21 22 23 26 25 27 26 26 38 49 52 53 55 53 49 47 40 47 52 57 58 57 50 47 45 41 39 40
57 40 36 44 52 38 45 33 31 26 28 30 26 50 13 20 16 17 21 27 30 34 38 36 42 48 49 53 59 56 48 46 42 44 48 50 49 46 44 42 42 42 39 37
51 46 48 48 41 40 38 33 33 29 33 55 36 31 18 19 20 28 31 26 37 40 42 43 44 49 51 55 59 59 50 46 42 42 41 45 49 46 44 41 40 38 34 35
47 53 49 42 44 43 40 36 97 88 99 60 43 39 17 22 26 30 35 34 38 42 44 48 52 54 55 57 60 58 53 46 41 39 38 38 39 40 39 38 37 37 34 35
76 81 51 48 46 38 42 42 84 88 47 54 46 48 29 30 35 35 33 39 43 44 46 48 51 53 56 56 58 56 54 51 44 38 35 35 37 39 37 37 37 35 33 32
58 89 54 50 41 46 45 54 42 50 40 45 36 31 26 30 34 32 38 44 42 44 46 48 50 52 55 56 56 57 56 55 48 40 32 29 30 33 36 36 36 35 34 30
40 72 50 55 48 46 47 39 50 59 76 41 41 35 50 51 46 34 38 37 36 38 44 47 49 50 52 53 52 53 55 52 46 42 31 27 25 27 30 31 31 31 30 31
34 39 61 52 50 40 47 47 44 40 44 49 23 32 26 37 37 36 32 33 34 36 37 39 42 43 44 45 47 47 50 52 44 39 32 26 25 26 26 28 28 29 28 26
42 39 59 47 50 48 46 38 30 37 44 38 38 29 23 32 37 37 31 26 25 30 34 33 33 34 36 39 41 44 45 48 48 42 36 29 26 26 28 27 28 27 30 28
41 43 65 56 52 52 55 43 40 39 41 45 36 24 25 30 26 22 25 23 21 20 20 20 22 25 32 34 36 39 41 44 46 47 45 37 30 29 28 28 28 28 30 29
53 43 49 44 52 43 53 49 46 40 53 33 32 22 22 23 24 24 23 21 20 19 19 20 22 22 24 28 32 35 39 39 42 47 50 48 37 32 29 29 29 30 31 31
43 48 58 41 42 47 48 52 51 52 44 41 29 30 22 24 25 23 20 18 18 19 21 23 25 24 25 26 28 34 38 39 41 46 51 53 46 37 33 32 31 31 34 32
45 50 47 64 42 42 43 36 44 50 43 41 36 35 23 23 20 21 20 20 21 21 22 23 25 26 26 27 30 33 38 40 41 45 50 53 52 46 41 37 35 36 38 36
42 50 52 40 38 38 38 32 32 34 36 37 40 26 26 26 24 25 24 23 22 22 25 25 25 24 26 29 33 37 37 38 40 46 48 52 53 53 48 42 39 40 40 39
45 43 52 66 42 45 24 28 30 29 29 29 32 27 28 26 24 24 23 23 23 26 27 27 26 28 28 29 37 39 44 45 46 48 50 53 57 56 52 48 45 42 40 41
44 37 47 58 36 23 28 33 36 37 26 26 31 29 25 26 28 23 23 25 29 31 31 30 28 29 32 33 35 40 47 51 55 59 58 56 60 62 60 58 50 45 43 43
52 46 45 41 43 20 22 30 29 29 25 30 30 29 32 32 37 25 27 34 35 35 34 34 33 34 33 34 38 47 54 56 60 60 62 61 63 63 64 60 54 50 45 48
57 51 54 48 48 31 24 31 30 28 30 32 34 33 34 34 28 30 37 40 38 37 35 34 36 38 39 40 45 52 53 54 53 58 62 66 66 68 64 61 54 56 52 56
46 53 53 47 53 54 34 36 31 33 33 35 34 35 36 35 36 41 45 46 44 42 42 40 42 45 44 44 43 48 50 48 46 53 58 65 65 63 59 61 60 57 55 53
40 33 33 37 33 33 33 33 34 37 37 38 39 36 39 43 44 47 51 48 44 43 43 42 45 46 41 38 40 48 48 48 49 51 53 55 57 59 59 54 54 54 49 53
33 37 37 39 33 37 33 34 38 38 41 41 41 44 44 50 49 50 48 47 46 44 45 45 47 46 46 45 48 50 51 51 50 52 52 53 55 53 50 56 54 50 50 48
33 39 34 34 32 31 34 38 38 38 37 37 39 42 45 48 47 45 45 44 44 45 46 48 50 53 52 49 51 51 54 52 53 52 52 50 52 48 47 47 45 46 40 41
34 31 35 28 29 34 37 36 39 37 37 38 42 41 40 43 45 44 43 41 42 46 46 49 51 51 52 52 53 52 54 55 53 52 54 53 52 49 51 47 46 54 55 52